This demonstration page uses our WeatherBlox Daily Observations layout. Learn more.

Left ArrowRight Arrow

Hourly Observations for July 8, 2017

Temp ( °F °C ) Dew Point ( °F °C ) Humidity (%) Winds ( mph kmh ) Pressure ( in mb ) Visibility ( mi km ) Precip ( " mm )
12:53 am 00:53 Clear 65 18.3 58 14.4 78 78 Calm 30.10 1019 10 16 0.00 0.00
1:53 am 01:53 Clear 63 17.2 57 13.9 81 81 Calm 30.10 1019 10 16 0.00 0.00
2:53 am 02:53 Clear 64 17.8 58 14.4 81 81 SSW 5 7 30.10 1019 10 16 0.00 0.00
3:53 am 03:53 Clear 62 16.7 58 14.4 86 86 SW 3 6 30.09 1019 10 16 0.00 0.00
4:53 am 04:53 Clear 61 16.1 56 13.3 84 84 WSW 3 6 30.10 1019 10 16 0.00 0.00
5:53 am 05:53 Clear 62 16.7 56 13.3 80 80 SW 6 9 30.11 1020 10 16 0.00 0.00
6:53 am 06:53 Sunny 63 17.2 57 13.9 81 81 Calm 30.11 1020 10 16 0.00 0.00
7:53 am 07:53 Sunny 66 18.9 59 15 78 78 SW 3 6 30.10 1019 10 16 0.00 0.00
8:53 am 08:53 Sunny 71 21.7 61 16.1 71 71 undefined N/A 30.10 1019 10 16 0.00 0.00
9:53 am 09:53 Sunny 75 23.9 62 16.7 64 64 S 6 9 30.09 1019 10 16 0.00 0.00
10:53 am 10:53 Sunny 79 26.1 63 17.2 58 58 S 5 7 30.09 1019 10 16 0.00 0.00
11:53 am 11:53 Mostly Sunny 82 27.8 63 17.2 53 53 SSW 7 11 30.08 1019 10 16 0.00 0.00
12:53 pm 12:53 Sunny 84 28.9 63 17.2 49 49 SSW 9 15 30.07 1018 10 16 0.00 0.00
1:53 pm 13:53 Sunny 86 30 64 17.8 48 48 SW 7 11 30.05 1018 10 16 0.00 0.00
2:53 pm 14:53 Sunny 87 30.6 62 16.7 43 43 SSW 9 15 30.03 1017 10 16 0.00 0.00
3:53 pm 15:53 Sunny 89 31.7 64 17.8 43 43 WSW 6 9 30.02 1017 10 16 0.00 0.00
4:53 pm 16:53 Sunny 89 31.7 63 17.2 42 42 S 8 13 30.01 1016 10 16 0.00 0.00
5:53 pm 17:53 Sunny 89 31.7 62 16.7 41 41 SSW 9 15 29.99 1016 10 16 0.00 0.00
6:53 pm 18:53 Mostly Sunny 86 30 63 17.2 46 46 S 6 9 29.97 1015 10 16 0.00 0.00
7:53 pm 19:53 Sunny 87 30.6 63 17.2 45 45 SE 6 9 29.98 1015 10 16 0.00 0.00
8:53 pm 20:53 Partly Cloudy with Light Rain 82 27.8 63 17.2 53 53 SSE 7 11 29.95 1014 10 16 0.00 0.03
9:53 pm 21:53 Clear 79 26.1 62 16.7 56 56 ESE 8 13 30.01 1016 10 16 0.00 0.03
10:53 pm 22:53 Clear 80 26.7 61 16.1 52 52 SSE 9 15 30.01 1016 10 16 0.00 0.00
11:53 pm 23:53 Clear 77 25 62 16.7 60 60 SSE 8 13 30.01 1016 10 16 0.00 0.00

Powered by AerisWeather